Hourly Data Report for March 05, 2020

All times are specified in Local Standard Time (LST). Add 1 hour to adjust for Daylight Saving Time where and when it is observed.

OTTAWA INTL A
ONTARIO
Current Station Operator: NAVCAN

45°19'00.000" N
75°40'00.000" W
114.90 m
6106001
71628
YOW

Download Data

Hourly Data (March 2020)
Hourly Data Report for March 5, 2020
TIME Temp Definition
°C
Dew Point Definition
°C
Rel Hum Definition
%
Wind Dir Definition
10's deg

Wind Spd Definition
km/h
Visibility Definition
km
Stn Press Definition
kPa
Hmdx Definition


Wind Chill Definition


Weather Definition


00:00 -0.2 -2.6 84 28 23 24.1 99.70   -6 LegendNANA
01:00 -0.6 -2.9 84 28 19 24.1 99.81   -6 Clear
02:00 -0.6 -3.0 84 28 26 24.1 99.93   -7 LegendNANA
03:00 -0.7 -3.1 84 28 21 24.1 100.00   -6 LegendNANA
04:00 -0.8 -3.5 82 29 24 24.1 100.05   -7 Clear
05:00 -1.6 -4.0 84 28 17 24.1 100.14   -7 LegendNANA
06:00 -2.2 -4.2 87 27 14 24.1 100.24   -7 LegendNANA
07:00 -2.7 -4.6 87 30 13 24.1 100.30   -7 Mostly Cloudy
08:00 -1.1 -3.3 85 29 13 24.1 100.43   -5 LegendNANA
09:00 0.0 -2.8 81 24 13 24.1 100.44   -4 LegendNANA
10:00 1.0 -2.8 76 26 14 24.1 100.46     Mainly Clear
11:00 1.6 -2.8 73 29 17 24.1 100.45     LegendNANA
12:00 1.4 -3.1 72 25 14 24.1 100.45     LegendNANA
13:00 1.5 -3.0 72 26 13 24.1 100.48     Mostly Cloudy
14:00 1.6 -3.3 70 25 9 24.1 100.47     LegendNANA
15:00 1.9 -3.1 70 19 9 24.1 100.46     LegendNANA
16:00 2.3 -3.5 66 19 9 24.1 100.48     Mostly Cloudy
17:00 2.0 -3.3 68 16 9 24.1 100.48     LegendNANA
18:00 1.7 -3.1 71 15 7 24.1 100.52     LegendNANA
19:00 1.1 -2.4 77 10 9 24.1 100.52     Mostly Cloudy
20:00 0.1 -3.5 77 12 8 24.1 100.51     LegendNANA
21:00 0.0 -3.7 76 16 9 24.1 100.50   -3 LegendNANA
22:00 0.0 -3.9 75 15 9 24.1 100.49   -3 Cloudy
23:00 -0.2 -3.6 78 8 9 24.1 100.44   -3 LegendNANA

Notes on Data Quality.

Legend

  • E = Estimated
  • M = Missing
  • NA = Not Available*
  • [empty] = Indicates an unobserved value
Date modified: